Location: Czekan�w
(50.3488°N, 18.7344°E)
Time: 18:05:10
(UTC+00:00)

STARLINK-1069 - Pass Details

Date: 17 February 2020
Orbit: 375 x 384 km, 53.0° (Epoch: 01 April)

Event Time Altitude Azimuth Distance (km) Brightness Sun altitude
Exits shadow 05:12:03 - 233° (SW) 2,148 6.2 -7.3°
Reaches altitude 10° 05:13:50 10° 228° (SW) 1,412 5.4 -7.0°
Maximum altitude 05:16:55 51° 151° (SSE) 493 3.7 -6.5°
Drops below altitude 10° 05:19:59 10° 74° (ENE) 1,411 6.9 -6.1°
Sets 05:22:04 0° 70° (ENE) 2,265 7.9 -5.7°
